Wind_Speed
24 26 27 29 31 31 32 33 31 32 29 25 23 16 12 10 6 12 11 7 7 6 1 2 4 1 2 2 2 3 2 2 2 2 1 2 2 1 1 2 2 3 2 2 2 2 1 0 1 2 2 2 1 3 6 3 2 4 2 1 1 1 4 4 1 3 4 5 4 4 3 4 7 4 3 3 2 2 4 5 4 4 3 2 3 1 4
25 27 28 29 31 30 32 32 30 30 29 24 21 13 8 8 10 17 13 4 1 6 2 2 4 3 5 4 2 4 2 1 2 2 1 2 1 0 1 1 1 1 1 2 2 1 1 1 1 1 2 1 1 6 10 7 4 2 1 2 1 1 1 4 4 2 3 3 5 5 4 4 4 2 3 2 3 4 3 2 3 3 4 4 5 3 5
25 27 28 29 31 30 32 32 29 29 27 21 16 11 6 5 6 14 19 13 10 10 3 4 2 2 5 4 5 5 3 3 4 4 3 4 2 1 2 2 1 2 3 3 3 3 2 1 2 2 2 2 4 7 10 10 6 4 3 3 3 2 1 3 5 4 3 3 2 3 1 2 2 2 4 3 4 4 3 2 4 2 4 3 5 4 4
25 26 28 29 31 31 31 32 29 27 25 18 13 10 7 4 3 6 12 19 20 16 11 7 1 1 3 2 5 5 3 4 7 7 5 5 4 3 3 3 2 3 5 4 4 5 3 2 4 3 4 2 4 8 8 11 8 5 7 8 4 4 3 2 5 5 4 5 5 4 2 3 1 1 4 5 2 1 3 4 2 4 4 1 2 4 2
25 26 27 29 31 31 31 31 28 26 24 16 11 13 9 4 3 3 4 9 11 12 15 14 6 4 5 2 3 6 3 4 6 6 5 5 5 4 4 6 4 3 3 3 3 5 5 5 4 2 4 3 3 8 9 11 8 3 4 6 3 5 3 3 5 5 0 3 2 1 4 5 2 1 3 5 6 5 6 4 1 4 6 0 5 1 4
25 25 27 28 30 31 31 31 28 26 24 17 12 15 13 5 3 4 3 2 3 5 9 12 10 11 9 3 3 7 7 6 6 5 3 6 8 4 4 9 7 3 2 3 3 5 4 6 4 3 4 3 4 7 6 9 11 5 3 4 3 6 2 1 4 6 5 4 5 5 6 5 3 4 4 5 6 6 5 3 1 2 6 4 2 5 5
24 25 26 27 29 30 30 30 28 25 23 17 16 17 12 6 5 7 8 5 4 4 4 6 10 11 8 5 5 9 9 8 6 5 3 5 9 6 4 6 9 7 4 4 3 4 3 4 4 3 4 4 3 5 3 6 12 8 4 3 3 4 1 2 5 4 5 6 6 5 7 5 5 7 6 4 8 7 6 3 2 4 5 4 8 11 6
24 24 25 26 28 29 30 30 29 26 21 17 21 20 13 7 5 7 8 9 10 9 6 4 5 6 6 5 6 8 9 8 6 7 7 4 6 7 5 4 7 7 8 7 5 1 2 2 2 1 2 3 3 3 1 3 8 7 3 3 3 4 2 3 5 5 2 3 3 1 5 5 4 5 7 4 8 8 5 4 4 6 5 3 8 11 6
23 24 24 25 27 28 29 29 29 28 23 20 23 22 15 10 8 6 4 5 9 9 6 3 2 3 5 4 5 7 9 9 5 6 11 10 5 6 5 4 5 6 9 9 4 1 2 4 4 3 1 2 2 1 1 2 5 6 3 2 3 4 3 1 4 4 1 2 1 1 5 6 4 2 4 5 5 5 3 3 2 3 5 5 6 7 3
22 23 23 24 25 26 28 28 28 27 25 23 23 21 16 12 9 6 3 4 7 7 4 3 3 2 2 2 3 5 7 11 7 4 9 15 13 10 6 3 2 5 8 8 8 11 10 8 10 9 5 5 6 6 6 5 3 3 3 2 2 3 4 3 4 4 2 0 1 3 6 6 1 2 2 2 2 4 4 4 4 3 4 5 4 4 4
21 22 22 23 24 25 26 26 26 26 25 24 22 20 18 15 10 7 4 3 7 8 4 3 4 3 3 3 3 3 5 10 9 4 3 9 14 16 14 9 4 3 5 10 13 15 12 10 10 6 2 3 5 4 6 5 3 3 3 1 2 3 4 3 2 4 4 1 1 3 4 3 3 5 4 2 3 5 7 5 4 4 4 3 4 4 4
21 21 21 22 23 24 24 25 25 23 23 23 20 17 17 16 12 10 7 4 4 7 4 4 3 3 5 6 4 3 4 5 6 5 3 4 10 17 18 12 5 2 9 14 13 10 6 5 4 1 2 6 4 6 8 8 7 7 4 2 2 3 4 2 1 4 4 1 3 3 2 3 3 5 2 3 5 7 11 9 5 6 5 5 7 6 5
20 20 20 21 21 22 23 24 23 21 20 19 19 16 15 14 12 10 9 6 3 5 2 2 5 6 7 9 6 4 7 7 6 7 6 5 8 13 14 11 6 10 13 12 9 6 2 2 3 2 4 7 6 7 8 7 8 9 9 5 3 4 3 2 2 3 3 2 3 3 3 3 3 4 3 4 3 4 9 8 5 5 4 3 5 4 3
19 20 20 20 21 21 22 22 22 20 18 18 17 15 14 14 13 10 8 6 3 5 4 2 6 9 9 9 7 5 7 10 8 7 8 7 5 7 12 14 13 13 11 7 6 5 2 1 3 3 3 4 4 4 3 3 5 7 8 7 2 5 3 2 3 1 3 4 2 1 3 4 1 1 0 1 1 1 4 4 1 2 3 2 3 3 2
19 19 20 20 21 21 21 21 21 19 17 16 15 14 14 15 14 11 8 6 4 6 11 6 6 8 7 8 9 5 4 7 6 5 7 8 7 7 12 16 17 14 8 4 4 3 2 2 2 1 1 1 0 1 2 2 3 4 6 6 4 4 2 3 3 1 3 5 3 2 3 2 4 4 2 3 3 2 4 5 2 1 4 2 2 3 3
18 19 20 20 21 21 21 20 20 19 16 14 14 13 12 13 14 13 12 9 5 3 10 9 7 6 4 6 9 7 3 3 4 3 5 8 11 13 13 14 16 15 12 6 4 4 3 2 2 2 1 1 1 0 1 1 3 4 6 7 8 6 3 3 4 2 3 5 4 2 3 3 4 5 5 7 5 3 4 5 0 2 4 3 4 6 5
18 18 19 20 20 21 20 19 19 19 16 14 13 13 13 12 12 13 17 19 14 7 9 11 11 9 6 5 7 6 4 4 3 1 2 4 8 13 17 16 15 17 15 7 2 4 4 2 2 2 1 1 1 1 1 2 2 5 7 7 8 6 5 4 4 2 2 4 3 2 3 2 2 4 7 9 2 5 6 3 5 4 3 5 8 9 9
16 17 18 19 20 20 20 19 18 18 17 13 11 12 13 13 12 11 14 16 13 9 11 14 14 12 9 6 6 6 5 5 3 1 2 3 4 10 15 14 12 14 13 6 2 3 4 2 2 2 1 2 1 1 1 2 2 2 3 4 4 4 3 2 3 3 3 4 3 0 2 3 2 4 8 7 3 6 3 4 6 1 4 7 8 9 9
15 16 17 18 19 19 19 18 17 18 18 14 10 10 12 13 13 13 15 16 13 9 11 14 15 14 13 11 11 11 9 7 6 3 1 3 7 10 9 6 7 9 8 5 3 3 3 1 2 1 1 3 2 1 2 2 1 1 1 2 2 2 2 3 2 2 2 3 3 1 2 2 4 5 6 5 4 4 3 5 5 4 6 6 6 7 6
15 16 16 17 18 18 18 17 16 17 18 15 10 9 10 11 11 12 13 15 14 12 12 13 14 15 14 15 15 14 13 11 9 5 2 2 11 11 3 2 7 9 6 5 3 2 2 1 2 1 1 1 1 2 2 2 2 1 1 1 1 1 1 2 1 1 2 3 3 2 3 4 9 6 3 4 2 6 7 7 6 5 5 5 5 5 6
14 14 14 15 17 18 18 16 15 15 17 16 11 7 7 8 9 10 9 10 10 10 11 11 11 12 12 13 14 15 14 14 13 9 4 4 10 9 3 2 5 5 2 2 2 1 1 0 1 1 1 1 2 1 2 1 2 3 1 2 1 1 1 1 1 0 2 2 1 2 4 5 9 5 4 4 6 10 10 8 6 4 4 3 4 5 6
14 14 13 13 15 16 16 15 14 14 15 15 11 7 6 7 7 8 9 9 9 9 9 9 9 10 10 10 11 13 13 13 15 14 10 7 9 9 4 1 4 4 3 3 2 1 1 1 1 1 1 1 1 1 2 3 1 3 3 2 1 1 2 4 2 1 2 2 2 4 2 4 10 14 13 10 11 9 6 6 5 3 1 2 3 5 6
13 14 13 12 13 15 15 13 12 12 13 14 12 9 7 5 5 7 8 8 8 8 8 7 6 7 9 9 8 10 11 11 12 15 13 8 6 8 8 7 7 5 5 5 3 0 1 1 1 1 1 1 1 2 3 2 1 1 2 2 1 1 3 5 4 2 3 5 5 5 4 6 11 13 11 10 9 6 4 3 2 1 2 2 2 4 5
12 13 13 12 13 14 14 12 10 9 11 12 12 11 8 4 3 4 4 4 5 4 5 7 7 7 8 8 7 8 9 9 9 12 14 11 6 6 7 8 8 6 7 8 5 1 1 1 0 2 1 0 1 3 2 2 1 1 2 1 2 1 2 3 4 3 3 2 3 4 5 6 7 7 7 7 7 6 5 3 3 3 3 3 4 5 6
11 12 12 13 14 14 13 10 8 7 8 10 11 10 7 5 4 4 3 4 5 4 2 4 7 8 7 7 8 9 8 8 8 9 11 13 11 8 7 8 9 8 8 8 6 4 3 2 1 2 2 1 2 1 2 1 0 1 2 0 2 3 4 4 3 3 2 2 5 6 5 4 4 5 7 7 6 6 5 3 3 3 3 4 4 5 7
9 10 11 11 13 14 11 9 8 7 6 8 9 10 9 7 6 5 4 4 5 4 1 1 3 5 5 6 9 9 7 7 8 7 8 9 10 10 8 8 8 9 9 8 7 6 5 3 2 2 2 1 2 1 1 0 0 1 2 0 2 2 2 2 2 3 3 1 3 5 3 1 4 5 5 5 5 4 3 3 3 4 5 6 7 8 9
8 9 10 10 12 12 10 8 7 6 5 6 7 8 9 9 8 7 6 5 3 2 1 1 2 4 4 5 7 8 7 7 9 8 6 6 7 8 8 7 6 7 9 8 6 6 5 4 3 2 0 1 2 2 1 1 1 2 2 2 3 2 1 1 4 4 1 2 6 9 4 2 5 6 5 5 5 4 4 4 6 7 7 8 9 9 10
9 8 8 9 10 10 8 6 6 5 4 4 5 6 8 9 9 9 8 7 5 2 1 3 4 4 3 4 6 6 5 6 8 7 6 6 6 7 8 7 5 5 7 7 4 4 4 3 2 1 1 2 3 2 2 2 3 2 1 4 4 3 3 3 4 4 3 5 13 15 7 1 4 7 6 6 6 5 5 6 6 7 7 8 8 9 11
9 8 7 8 9 9 7 4 4 4 4 3 3 5 6 7 9 9 8 8 7 4 3 3 3 3 2 3 4 5 5 5 6 5 4 5 7 7 9 8 5 4 5 5 3 2 2 1 1 1 2 3 1 1 2 2 2 0 3 3 3 3 3 3 5 4 3 6 12 12 6 2 4 6 6 6 5 5 5 5 5 5 6 7 8 10 11
9 8 7 7 8 7 6 3 1 2 4 3 3 3 4 5 8 9 8 7 7 5 3 2 2 2 3 3 4 4 4 4 5 5 5 6 7 7 8 7 4 3 3 3 2 2 2 1 1 2 2 3 2 2 1 1 1 3 4 3 1 2 3 4 4 3 2 5 8 7 4 3 4 4 5 5 4 4 4 4 4 5 7 8 9 10 11
8 8 7 7 7 7 6 3 1 0 2 3 3 3 3 3 7 9 7 6 5 4 3 2 1 2 2 3 3 4 5 6 6 7 7 6 5 5 6 5 2 1 2 1 1 1 1 1 1 2 2 2 3 2 2 2 1 3 5 7 5 3 3 3 2 1 2 4 5 4 4 4 4 4 4 5 4 4 3 4 5 7 7 8 10 11 10
8 8 7 7 7 7 6 4 3 2 0 2 4 3 2 4 8 8 6 4 4 4 2 2 2 1 2 3 3 5 6 6 6 6 6 4 2 3 4 4 2 2 2 1 0 1 1 1 1 1 1 2 2 2 3 3 2 4 8 10 9 6 5 5 4 3 3 4 4 3 3 5 5 5 4 4 4 3 3 5 7 7 7 9 9 8 7
9 8 7 7 7 7 6 5 4 3 2 2 2 2 4 7 9 7 4 3 3 3 2 2 1 0 2 3 2 3 5 5 5 6 6 3 3 4 4 3 2 3 2 1 1 1 0 0 1 0 1 2 2 3 2 2 4 6 8 11 11 9 8 7 6 4 4 4 3 3 3 4 5 4 4 4 3 2 5 7 8 7 6 6 5 5 5
9 8 7 6 7 7 6 6 5 4 4 4 4 4 6 9 8 5 2 2 2 2 2 3 2 0 2 2 1 2 4 4 5 6 5 4 5 6 4 3 2 1 1 1 1 0 1 2 1 2 1 1 2 2 0 5 7 6 7 11 12 11 10 9 8 6 5 4 4 4 4 4 3 4 4 4 2 4 6 8 8 6 4 3 4 5 6
10 9 7 6 5 5 6 6 6 6 6 6 6 6 7 9 7 3 1 1 1 1 1 2 2 1 2 2 1 2 4 3 4 5 4 4 6 5 2 2 2 1 1 2 1 0 0 1 2 2 1 1 1 1 4 6 7 7 10 12 13 13 12 10 8 7 7 5 4 4 4 3 3 4 5 4 3 5 6 6 6 4 4 4 5 5 7
11 9 7 5 4 4 5 5 5 5 6 6 5 6 9 9 5 2 0 0 1 0 0 1 2 2 2 1 2 3 3 3 4 5 4 4 5 4 2 1 1 1 2 2 1 1 1 2 2 0 1 0 2 5 7 6 6 8 12 15 15 14 12 8 5 6 7 5 4 4 4 3 3 4 4 3 3 3 3 3 3 3 4 4 5 6 8
10 8 6 4 4 3 3 4 4 4 4 4 4 6 8 6 3 1 1 1 1 1 1 1 1 2 3 2 2 3 2 3 5 4 3 4 4 3 2 1 1 2 3 2 1 1 1 2 2 1 1 3 5 7 8 7 7 8 11 13 15 15 13 8 4 5 5 5 4 5 4 4 5 5 4 3 2 1 2 3 3 4 4 5 6 7 8
7 6 5 3 2 1 2 3 3 3 3 3 4 6 5 2 1 0 0 1 1 2 2 1 2 3 4 3 2 2 2 3 3 3 3 4 4 3 2 2 1 1 2 2 2 2 1 1 2 1 3 6 8 10 11 10 9 9 9 11 13 13 13 9 7 6 6 5 5 6 7 8 8 6 4 4 3 1 2 4 4 5 6 6 7 8 9
8 6 4 3 2 1 2 3 4 3 4 4 4 3 1 1 1 1 1 1 0 1 2 2 3 4 5 3 2 3 2 2 3 2 1 2 2 1 2 1 1 2 2 2 2 2 2 2 2 2 3 5 6 7 8 7 5 5 6 8 9 10 10 9 7 5 4 4 5 6 7 8 8 6 5 4 2 2 3 4 5 6 7 7 8 9 10
7 6 5 5 4 2 3 4 4 2 1 1 0 0 1 2 1 0 1 1 1 1 2 2 3 3 5 5 4 3 3 2 1 1 1 1 1 1 1 1 1 2 1 2 2 1 1 1 2 2 2 4 6 9 8 3 1 4 7 8 8 8 7 5 4 3 3 4 5 5 4 5 6 6 5 3 2 2 4 6 6 6 8 9 9 9 11
7 7 7 7 5 4 2 2 3 3 3 2 2 1 1 1 1 1 1 2 1 2 2 2 3 3 3 5 5 3 3 3 2 1 1 1 1 0 0 1 1 2 1 3 3 2 2 1 2 1 4 4 8 10 7 3 5 7 8 8 7 6 4 2 1 2 3 4 4 3 3 7 8 6 4 2 1 3 4 5 6 6 8 9 9 10 11
8 7 7 6 5 4 3 4 4 3 2 2 2 1 1 1 1 2 1 1 1 2 2 1 3 3 3 2 3 2 1 2 2 0 1 1 1 1 0 1 2 1 2 4 2 3 2 1 2 4 6 5 9 10 6 5 7 7 8 7 5 3 2 1 1 2 3 3 3 3 5 8 7 4 3 1 1 3 3 5 6 7 8 9 10 11 11
8 7 6 5 4 4 4 3 3 3 2 2 2 2 2 2 2 1 1 2 2 3 4 3 3 3 2 1 1 1 0 1 1 1 0 1 1 1 2 2 1 1 3 2 2 3 0 2 3 4 6 7 10 11 8 6 10 9 7 6 5 3 2 2 2 3 3 3 3 4 5 6 6 4 2 1 2 4 4 5 7 8 9 10 11 11 11
8 7 5 3 4 4 3 2 3 3 2 1 1 1 1 2 2 0 1 3 4 5 7 7 5 3 1 0 1 1 0 1 1 1 1 1 0 2 1 1 2 2 1 2 2 0 2 3 5 6 8 8 9 11 9 4 10 12 9 7 7 5 4 4 3 3 4 4 4 6 7 7 7 5 4 3 4 5 6 7 8 9 10 11 11 11 10
7 6 4 2 3 4 2 1 2 2 1 0 1 3 3 1 2 3 1 4 6 7 9 9 7 4 2 0 0 0 0 1 1 1 0 1 1 0 1 2 1 1 2 2 1 1 2 3 5 6 7 8 8 8 7 5 9 12 11 9 8 8 6 5 4 4 5 5 4 6 8 8 8 7 6 5 5 6 8 8 9 9 10 10 10 10 10
6 6 4 2 2 3 2 1 1 1 1 2 2 2 3 3 3 4 5 8 9 10 11 10 9 6 4 1 1 2 2 2 1 1 2 2 0 2 2 1 1 2 2 1 2 2 3 5 6 5 5 7 8 7 6 5 8 11 12 11 9 8 7 5 5 5 5 5 5 6 8 9 9 8 8 7 6 6 8 9 9 8 8 9 9 9 9
4 4 4 2 0 2 1 1 1 1 2 3 2 1 1 2 5 6 7 8 9 10 11 10 8 6 4 2 2 3 3 2 1 1 2 2 1 1 1 1 0 1 1 2 3 4 5 5 6 5 4 6 9 9 6 5 8 12 13 12 10 9 8 8 7 7 6 5 6 6 7 9 9 9 9 8 6 5 6 8 8 7 7 8 8 8 8
4 3 2 1 1 1 1 1 1 1 2 2 2 2 1 4 6 6 5 7 9 10 10 7 5 3 2 2 1 1 1 1 1 2 2 2 0 1 1 1 2 2 2 3 4 4 4 4 6 6 5 5 8 9 8 5 7 11 13 13 11 10 10 10 10 9 7 7 7 7 7 8 9 10 10 9 7 5 5 6 7 7 7 8 8 8 8
4 3 1 2 2 2 3 2 2 3 2 3 3 2 3 5 7 6 5 7 8 9 9 6 2 1 1 1 0 0 0 1 1 0 0 1 0 1 1 1 2 3 2 3 4 5 6 6 7 7 6 6 7 8 9 8 7 10 13 13 12 11 10 10 11 10 9 8 8 8 7 7 9 10 12 11 9 6 5 6 7 7 7 7 7 7 7
3 3 2 2 1 2 2 2 1 2 2 2 4 5 6 7 8 7 6 7 8 8 7 5 2 1 0 1 1 1 2 2 2 1 1 1 2 1 1 1 3 3 3 4 5 6 6 6 6 6 6 6 7 8 9 8 8 10 12 13 13 12 11 11 11 11 11 10 9 9 9 9 9 11 12 12 11 9 7 7 7 7 7 6 5 5 5
2 3 4 5 5 4 3 2 2 3 5 8 10 10 8 9 9 8 7 9 9 7 4 3 2 0 1 0 0 1 1 2 2 1 1 2 2 3 2 3 4 5 5 6 7 7 6 5 6 6 6 6 7 7 8 8 9 10 11 13 14 14 13 13 13 13 12 10 10 10 11 10 9 10 10 11 11 11 11 9 8 8 8 7 5 3 3
3 3 4 5 7 8 8 7 7 8 10 11 11 10 10 11 11 10 11 10 8 5 4 4 1 1 1 1 1 0 0 1 1 1 2 3 3 3 4 5 6 6 8 11 12 11 10 8 8 8 8 8 9 10 10 11 11 11 12 14 15 16 16 16 15 14 14 13 12 12 12 11 10 10 10 12 13 14 13 11 9 8 8 7 5 4 3
Wind_Direction
358 0 2 3 4 3 2 1 358 354 354 360 6 15 28 37 47 13 12 135 115 48 93 339 360 215 304 305 236 253 228 201 245 261 297 238 227 302 241 220 222 223 226 207 166 121 118 190 205 176 130 139 191 341 337 325 63 85 105 234 232 130 91 81 38 317 315 301 317 344 354 62 79 60 58 95 69 89 140 173 171 133 149 150 86 112 250
2 2 3 5 6 5 4 4 3 360 358 360 6 17 35 43 47 36 40 145 178 27 75 331 337 295 321 349 338 311 265 229 269 228 24 356 357 22 288 292 357 296 20 85 94 89 115 52 4 157 137 139 330 26 34 35 34 52 137 187 174 126 84 93 98 28 351 336 337 340 343 31 66 51 21 59 78 78 109 130 81 111 182 157 126 191 247
5 4 4 6 7 7 7 6 6 4 2 1 8 19 25 31 44 37 43 63 69 56 35 289 280 305 334 4 8 344 325 15 42 102 73 20 48 85 290 290 319 3 44 63 38 35 80 120 44 25 348 1 354 7 39 58 48 26 58 102 114 105 87 101 123 147 172 183 237 261 256 12 37 55 29 47 92 102 142 128 81 133 191 137 136 197 240
7 5 5 6 7 9 9 8 9 9 7 7 20 34 30 29 27 9 31 51 60 54 28 4 358 320 353 29 16 360 312 345 34 72 63 25 46 59 354 321 353 36 43 56 31 17 19 63 77 39 337 328 347 354 41 76 62 37 50 53 76 99 58 56 113 136 175 195 227 235 148 83 47 56 28 15 12 64 102 97 103 174 159 99 216 187 144
9 7 6 5 7 9 10 11 12 14 13 14 35 49 47 48 30 338 353 27 37 39 24 17 21 13 23 53 355 356 335 325 11 42 46 30 35 55 33 16 28 21 16 69 48 355 3 35 51 19 329 282 310 357 47 65 36 16 53 30 62 101 38 14 76 66 314 214 245 342 84 80 52 39 23 8 359 25 76 93 159 147 123 224 272 148 98
10 10 7 6 8 9 11 14 15 18 19 21 47 57 51 53 37 14 29 13 356 25 14 7 20 26 23 38 2 6 18 21 11 360 13 30 22 32 39 20 18 345 316 111 64 354 10 31 8 339 352 339 333 0 36 39 17 23 69 22 77 112 60 355 69 32 6 18 17 32 74 81 49 32 24 29 28 35 75 96 317 107 135 195 209 88 79
12 12 9 8 8 10 12 14 17 23 24 26 52 60 48 51 54 28 46 62 27 40 30 6 27 29 14 14 16 11 18 24 13 352 353 13 11 31 73 15 5 9 30 100 81 11 43 49 4 344 355 347 358 11 359 358 7 24 61 22 63 106 107 155 113 68 24 16 2 31 71 73 47 22 3 47 73 64 72 77 26 70 106 145 118 94 74
13 13 11 10 9 10 13 14 18 24 26 32 49 53 41 41 41 13 39 52 24 25 43 33 36 27 11 14 10 6 13 12 9 24 35 19 350 15 55 16 358 21 43 68 93 86 115 88 9 7 15 358 25 47 358 317 349 7 43 8 19 82 140 177 112 89 28 351 322 20 72 69 63 30 348 14 76 71 56 62 68 76 85 112 105 93 74
14 13 12 11 10 11 13 15 18 21 26 35 43 45 39 39 35 14 33 37 4 6 22 27 60 35 8 10 4 1 1 354 354 35 40 46 31 355 352 343 348 20 38 49 61 326 233 217 260 262 217 312 315 330 317 328 345 355 20 2 357 68 120 157 86 96 231 307 296 164 78 69 74 68 332 348 58 84 69 56 65 102 136 140 104 97 113
14 14 13 12 12 13 13 15 17 19 27 34 35 34 31 34 39 34 57 51 7 1 4 9 41 49 352 347 5 355 348 355 10 40 23 26 31 19 6 6 12 29 31 21 345 324 305 280 286 283 254 269 284 285 293 299 315 329 358 38 25 81 133 147 107 124 178 198 100 117 93 87 89 260 288 353 94 126 104 54 26 48 128 146 137 148 178
14 14 14 12 13 13 13 15 16 18 25 29 26 24 24 29 38 34 56 78 6 355 12 26 24 21 347 342 357 359 358 5 17 45 10 4 18 26 28 35 62 64 8 337 323 317 309 302 303 289 248 309 307 314 323 324 339 329 327 34 44 67 109 136 125 123 151 181 48 74 103 139 233 272 262 199 154 131 106 77 18 23 62 114 126 125 121
14 14 13 12 12 12 12 14 16 18 24 24 22 23 23 28 40 42 58 94 2 354 32 51 22 5 356 4 14 5 3 1 6 36 58 358 13 26 27 29 47 4 335 329 326 322 309 313 319 299 20 2 13 55 43 23 13 8 12 63 98 72 80 109 95 106 137 141 54 85 191 240 291 311 297 130 124 112 100 85 41 32 49 76 88 92 106
13 13 13 11 11 11 11 14 17 20 24 23 21 24 24 26 39 50 64 84 18 343 2 11 10 21 16 17 19 356 4 18 28 49 57 21 14 25 23 18 353 332 335 337 344 355 355 344 358 353 347 358 23 51 55 42 21 17 18 25 94 118 115 117 78 87 137 114 92 153 230 296 14 28 48 95 96 82 84 70 25 17 28 62 90 91 111
11 12 13 11 9 10 11 14 18 21 25 25 22 26 31 31 35 47 66 88 64 2 8 341 352 7 10 11 12 357 7 18 25 37 33 13 2 10 10 8 358 347 347 347 355 14 62 43 21 14 352 7 18 8 18 47 42 35 20 4 52 119 127 120 85 97 138 120 127 190 353 1 79 111 63 94 21 352 107 106 55 6 12 41 112 98 96
9 10 11 11 9 9 12 16 20 22 26 29 27 32 41 40 38 45 63 107 127 35 28 15 325 327 337 3 16 15 7 8 2 357 6 10 11 7 7 9 9 8 13 22 22 33 71 61 61 72 352 22 96 308 326 345 4 39 41 23 40 78 123 161 150 151 108 98 90 35 19 283 225 229 263 11 8 245 153 114 103 354 4 6 138 101 67
6 7 10 10 9 9 12 18 22 22 27 33 32 34 40 40 44 57 66 82 116 36 9 8 357 346 346 11 23 30 25 355 340 334 352 2 359 357 4 13 16 18 23 36 55 52 46 71 114 139 182 204 188 229 2 2 325 342 13 30 40 42 42 100 116 121 110 111 127 164 190 227 235 236 280 338 340 213 130 83 291 300 11 49 119 94 70
4 6 8 8 8 9 13 20 24 23 25 32 35 36 35 34 46 68 74 75 82 70 27 29 37 40 40 22 12 17 11 350 359 30 352 334 335 344 356 9 17 19 20 26 46 44 52 68 61 72 83 305 69 68 13 59 22 334 343 9 25 24 16 49 95 119 114 116 132 186 204 231 237 243 298 330 317 158 108 92 251 283 34 94 107 89 76
3 4 6 8 9 9 13 21 26 25 26 31 38 43 43 44 52 69 78 79 79 62 43 47 51 50 51 44 26 23 8 351 6 20 314 317 334 337 343 357 12 13 15 31 63 46 57 54 34 76 82 324 31 92 10 42 55 332 335 4 14 17 18 50 115 109 75 104 114 355 260 250 259 296 329 353 118 141 127 204 222 214 94 105 93 85 78
2 2 4 7 8 10 14 22 27 26 28 32 44 54 54 56 64 72 76 78 78 66 54 58 61 59 57 53 47 45 38 26 27 35 24 350 343 333 329 356 16 6 9 40 68 58 67 30 344 92 80 337 359 84 39 40 41 331 4 28 14 20 14 21 85 79 60 115 113 51 259 288 337 332 342 25 107 172 212 193 169 121 108 94 69 69 63
3 2 3 5 8 9 13 22 29 28 27 31 41 51 52 54 59 63 69 76 78 73 65 64 64 61 58 52 47 43 41 37 31 41 113 320 336 344 358 26 360 357 10 37 40 39 78 54 315 19 84 324 331 87 77 41 1 347 66 65 24 81 67 35 70 78 74 88 68 90 192 314 345 339 326 12 87 166 159 137 130 119 105 80 49 36 24
5 3 1 3 6 9 10 17 28 31 30 33 37 45 54 56 52 50 59 75 81 74 68 70 67 61 57 54 51 48 46 43 34 27 29 353 358 17 113 214 334 353 18 49 45 8 28 172 305 12 75 302 340 82 107 69 354 339 40 102 67 39 103 155 227 5 95 118 105 158 203 316 3 55 109 81 109 134 129 117 119 112 85 49 12 356 348
3 3 2 1 3 5 7 12 22 30 34 36 40 55 71 66 57 53 58 72 84 83 79 78 71 61 58 56 53 51 49 47 41 30 23 26 38 53 82 46 18 29 18 27 57 35 355 39 62 51 46 347 16 56 86 99 95 317 352 65 53 1 93 116 112 53 86 113 136 148 157 34 59 86 102 104 110 117 108 96 97 78 21 319 326 325 320
0 0 0 0 0 1 2 6 17 28 32 34 40 52 59 57 57 60 63 74 88 91 81 74 69 58 52 49 47 44 40 40 41 34 27 30 52 57 50 34 27 26 20 24 36 152 127 100 109 92 74 51 80 68 48 70 133 308 7 56 79 85 92 88 92 105 74 65 90 127 125 99 94 100 106 110 115 121 115 109 121 240 239 233 268 292 298
357 357 357 358 357 357 358 0 11 26 32 33 37 39 38 36 38 44 49 59 75 82 68 56 52 42 35 32 29 28 30 31 35 37 37 40 53 60 48 37 30 23 19 19 15 22 97 103 110 85 82 19 80 91 75 47 51 82 60 19 317 342 55 71 94 112 92 85 165 175 145 123 122 126 133 137 145 157 159 164 196 209 208 228 259 282 293
351 353 354 355 355 354 356 357 2 17 30 32 34 34 35 39 32 20 27 48 58 70 66 42 43 41 34 29 23 21 29 33 30 37 46 51 55 60 54 45 39 29 21 22 22 32 58 66 62 85 95 21 14 92 138 101 97 108 85 46 291 346 45 79 93 80 85 185 194 176 149 146 152 152 159 166 168 175 184 189 198 213 239 259 273 291 300
341 347 348 352 354 354 356 358 359 8 23 27 29 32 37 41 39 37 46 57 58 59 52 14 39 35 26 28 26 23 31 35 28 35 52 52 49 50 43 34 33 27 23 30 39 45 57 74 73 83 103 31 26 89 158 136 86 84 76 202 274 350 41 104 101 79 75 109 159 143 123 217 203 175 169 176 174 183 211 227 246 262 272 280 291 300 305
330 336 340 345 351 353 356 359 359 8 25 22 18 27 38 43 46 47 46 40 33 38 33 355 353 3 12 25 26 24 35 36 27 31 45 39 33 36 28 19 23 26 24 29 40 45 51 61 60 58 124 34 49 66 89 66 84 79 53 327 349 43 120 134 92 103 138 230 180 164 148 275 222 194 176 178 191 213 239 251 267 273 275 285 294 298 302
323 323 327 335 345 351 355 359 0 9 22 17 9 17 31 40 43 44 40 34 32 38 348 321 321 335 18 42 29 24 31 27 19 27 41 32 22 21 17 15 25 31 25 28 40 46 44 48 34 335 329 61 62 30 1 32 56 58 329 320 6 71 163 170 128 148 203 199 180 178 174 183 199 190 183 191 207 224 235 247 262 269 276 288 294 296 300
320 317 314 320 334 344 349 354 4 12 15 15 14 14 19 26 31 32 29 25 22 14 350 344 348 358 20 35 24 15 11 8 7 11 17 10 5 5 9 16 29 39 30 32 45 48 37 37 17 348 12 44 64 334 359 42 61 265 270 303 11 70 129 134 124 131 135 154 172 184 195 193 186 191 197 208 219 226 235 251 264 274 287 294 295 299 303
316 310 304 306 317 331 338 338 354 30 28 24 8 9 19 22 18 16 16 14 10 3 3 24 34 8 3 12 7 350 340 344 347 341 337 341 347 354 2 10 24 37 33 28 31 32 22 13 54 67 44 41 70 109 107 104 173 260 268 260 168 113 121 126 117 99 119 159 170 181 197 205 196 189 197 213 222 223 238 267 283 293 300 298 298 303 306
318 310 302 297 298 307 320 317 249 202 42 38 31 31 40 14 359 1 5 5 2 2 9 17 359 350 10 20 11 349 333 323 318 322 331 334 336 348 359 3 6 359 348 338 2 36 49 16 37 78 71 52 72 107 128 126 132 273 250 221 202 184 167 171 175 139 154 174 182 182 195 209 208 196 203 214 214 215 254 298 305 307 304 298 298 300 299
321 313 301 289 283 286 294 290 259 238 290 28 34 42 23 338 341 350 1 8 7 12 25 22 12 7 355 350 354 355 347 336 326 331 341 346 345 346 348 345 322 303 302 297 341 20 52 55 15 32 66 78 91 93 96 116 157 237 229 213 208 211 205 204 218 212 193 201 207 197 205 228 233 233 233 218 205 219 300 317 315 307 290 285 294 303 305
319 313 300 282 273 274 275 273 269 257 252 278 312 342 342 336 336 341 357 15 16 27 43 51 73 190 316 333 343 346 346 350 356 357 360 10 3 344 335 325 308 292 274 252 267 318 344 176 192 150 60 89 105 88 86 183 217 238 227 211 209 215 216 213 215 212 211 226 237 245 265 264 248 242 239 222 219 285 319 320 317 309 288 286 313 340 338
316 310 299 279 271 270 261 256 263 265 260 261 266 286 322 335 335 334 353 19 19 38 53 56 83 202 319 341 35 5 354 358 1 0 6 7 347 335 324 315 315 301 276 291 290 257 247 238 198 157 128 68 71 76 250 245 242 239 219 207 208 212 213 212 217 224 229 237 253 273 290 285 257 231 216 214 252 310 314 315 320 324 325 340 358 359 349
313 308 298 282 275 270 257 253 258 263 263 260 260 276 307 324 329 330 352 39 32 62 65 58 82 84 352 356 353 340 347 354 353 349 342 332 333 332 325 322 334 354 328 295 271 146 255 236 199 185 217 2 34 208 236 250 246 224 207 203 204 205 208 213 225 234 237 243 260 274 280 274 248 214 203 221 280 306 309 317 330 345 5 15 10 358 351
313 308 300 286 278 270 263 262 261 256 251 244 247 278 302 313 315 310 301 79 63 101 124 86 104 141 146 151 285 304 329 350 347 344 335 325 331 344 5 5 328 317 321 309 291 337 268 212 189 187 344 25 207 225 239 256 252 226 214 213 214 214 217 226 239 240 241 249 259 262 262 250 218 204 214 244 284 311 320 330 345 356 2 3 358 353 351
322 316 311 294 281 276 267 261 260 253 239 233 258 295 309 313 307 287 255 205 221 236 199 150 171 202 188 196 266 297 335 340 332 338 354 347 332 333 6 31 305 309 334 346 352 335 263 197 149 116 211 224 239 252 261 271 270 248 231 228 229 224 221 227 249 254 246 244 243 246 243 221 211 223 243 246 238 324 348 349 353 350 342 339 340 343 344
341 336 330 314 290 276 246 240 249 241 228 250 297 319 329 337 2 29 110 155 197 227 212 204 239 225 197 191 256 282 309 345 352 2 6 356 343 335 3 17 343 341 348 315 302 335 4 38 75 88 246 253 263 270 275 277 275 263 245 237 234 225 219 229 255 257 240 232 239 243 230 215 216 232 237 215 206 277 346 349 349 343 338 337 340 340 339
353 357 2 19 37 26 256 268 282 272 257 268 291 308 326 2 16 19 34 49 215 220 214 238 260 233 206 209 258 267 270 348 29 36 345 355 3 352 359 4 6 36 29 315 303 10 16 333 1 9 291 274 283 296 300 298 280 247 220 215 220 218 219 234 255 259 249 253 267 268 250 230 225 224 208 199 219 285 318 328 334 334 333 335 337 336 334
358 19 30 31 28 358 304 303 318 315 236 235 255 143 42 36 41 34 22 26 8 222 218 248 274 255 228 231 247 253 247 264 308 277 274 314 335 332 10 15 6 41 38 283 288 28 78 293 355 5 266 272 317 329 325 317 192 172 169 177 194 207 215 230 245 256 266 271 281 287 264 214 196 191 186 196 245 288 303 317 323 322 324 328 330 329 329
20 25 18 11 15 18 8 22 60 82 106 111 85 52 28 32 16 2 47 56 349 284 271 280 306 306 254 235 237 242 245 248 251 267 315 312 291 314 4 322 346 49 101 258 281 45 88 69 350 290 245 274 331 332 312 235 172 164 167 174 189 198 199 208 244 257 265 271 281 279 189 162 163 169 173 179 285 304 308 319 326 326 326 328 326 325 327
14 12 7 13 30 46 69 92 86 73 79 84 55 17 338 347 348 350 29 78 308 314 326 311 307 323 319 270 252 261 253 233 232 298 20 308 264 204 136 358 19 53 229 252 306 52 58 349 299 266 263 301 341 337 304 225 192 181 182 190 201 198 183 194 275 278 269 262 253 224 179 164 163 165 161 158 326 324 316 320 330 335 333 329 327 327 329
4 4 11 30 43 50 65 75 55 39 57 73 49 18 341 345 357 352 334 337 341 350 351 332 297 295 311 295 268 295 244 211 235 309 312 232 238 68 57 40 34 230 247 287 45 64 137 218 218 252 283 320 345 345 325 240 206 199 201 209 215 215 216 235 281 306 294 261 228 215 201 184 175 170 177 236 293 314 316 315 322 328 329 329 330 331 331
359 4 13 31 40 43 46 25 19 35 58 55 63 97 42 342 334 273 324 336 336 339 340 332 313 291 290 330 340 353 77 155 285 310 275 250 30 65 70 252 244 247 307 6 36 59 247 231 231 259 296 321 333 339 337 269 214 209 213 222 229 235 243 250 277 311 309 284 238 216 209 202 197 198 215 246 275 301 310 311 314 317 321 327 332 333 333
2 11 21 32 23 20 13 343 11 39 77 163 142 150 161 209 221 209 274 323 325 333 338 334 320 306 301 336 6 314 218 215 271 261 200 55 30 47 214 230 242 34 30 12 339 307 292 264 255 274 315 332 326 319 319 281 226 217 222 234 242 246 254 266 284 300 307 303 270 231 220 217 215 215 223 243 271 294 303 306 309 311 315 325 332 334 335
10 22 40 61 13 7 37 93 26 5 163 168 173 177 179 202 235 268 310 323 321 323 326 324 316 306 289 248 232 237 215 195 215 198 138 101 22 236 207 172 63 45 45 358 307 274 244 250 267 290 330 352 348 327 299 266 229 218 224 236 246 251 258 268 278 285 293 298 283 252 236 231 228 225 226 238 261 288 298 300 302 308 318 326 332 337 339
21 29 46 78 336 343 21 133 178 194 159 160 177 197 211 297 302 307 321 332 332 327 320 312 307 298 279 241 227 238 220 183 181 207 162 135 215 265 82 79 33 204 168 210 253 250 235 251 289 313 329 348 352 344 318 267 230 221 226 236 247 255 260 264 271 280 286 285 280 270 254 242 236 230 227 233 250 277 293 294 296 308 325 332 335 340 345
13 10 29 103 187 227 183 163 190 252 208 212 233 238 274 318 324 328 333 341 347 345 332 312 295 285 268 229 215 253 244 133 182 230 193 137 169 315 21 21 293 253 188 192 217 230 238 272 318 335 327 315 328 336 331 298 244 229 231 239 248 257 263 268 272 279 283 280 278 278 270 253 239 228 225 233 246 262 286 298 299 305 324 337 340 344 348
349 335 285 186 209 234 222 226 304 314 274 234 248 272 294 314 328 338 333 327 338 349 346 331 300 252 264 244 167 336 259 166 169 231 63 94 231 224 141 152 260 264 244 216 220 237 265 298 322 325 307 291 297 307 308 297 267 242 237 241 250 261 271 276 278 280 281 277 274 275 274 262 244 231 227 232 239 249 276 302 304 301 312 331 341 346 347
314 284 235 203 223 261 225 206 274 306 278 268 294 305 307 311 324 342 344 324 323 336 341 326 282 231 356 39 55 354 266 220 179 122 143 207 206 176 165 212 226 225 229 235 237 249 277 303 311 302 297 300 301 297 293 290 277 257 245 244 252 262 271 277 279 279 277 274 272 272 271 263 252 241 235 233 236 246 262 285 298 299 300 313 331 347 348
252 255 247 229 225 233 229 214 229 253 266 284 299 306 305 303 309 325 334 328 326 333 332 301 261 95 57 70 191 259 259 211 159 133 218 222 182 149 173 221 221 221 249 274 275 270 276 285 284 284 293 305 307 301 296 291 284 270 255 250 253 261 271 277 278 276 274 273 270 269 268 265 260 254 245 238 239 244 250 261 278 289 290 293 305 324 337
222 244 258 247 241 246 255 262 267 271 276 283 293 300 298 297 303 312 316 315 312 297 270 261 246 123 135 207 206 192 273 237 203 219 251 235 197 179 200 219 225 245 279 293 292 282 273 268 269 278 288 294 296 294 287 281 279 274 263 255 254 258 264 269 270 268 270 271 270 270 270 268 263 257 247 240 240 242 243 248 264 277 279 280 285 292 298
Height
1492 1489 1486 1483 1480 1476 1473 1469 1465 1460 1456 1453 1450 1449 1448 1447 1448 1447 1444 1443 1443 1443 1445 1446 1446 1446 1445 1444 1444 1443 1442 1442 1442 1442 1442 1442 1442 1442 1441 1440 1440 1439 1439 1439 1439 1440 1441 1441 1441 1439 1440 1442 1442 1440 1438 1438 1437 1438 1442 1446 1445 1446 1450 1457 1464 1464 1460 1456 1455 1457 1457 1455 1454 1459 1465 1467 1465 1465 1465 1466 1471 1475 1482 1485 1482 1482 1485
1492 1489 1486 1483 1480 1477 1473 1470 1466 1462 1457 1454 1452 1451 1450 1450 1450 1448 1446 1445 1444 1446 1450 1451 1451 1449 1447 1445 1444 1443 1442 1442 1442 1442 1443 1444 1443 1443 1442 1440 1440 1440 1440 1440 1441 1442 1441 1442 1442 1441 1441 1441 1440 1439 1438 1438 1439 1439 1441 1443 1443 1447 1453 1458 1465 1470 1469 1465 1462 1460 1457 1456 1458 1463 1468 1468 1468 1468 1468 1471 1471 1472 1480 1481 1476 1480 1486
1492 1489 1487 1484 1481 1477 1474 1470 1467 1463 1459 1456 1454 1452 1452 1451 1450 1450 1450 1447 1446 1451 1456 1456 1454 1452 1450 1448 1447 1446 1444 1443 1442 1442 1444 1445 1445 1444 1442 1441 1441 1441 1441 1441 1442 1443 1441 1441 1443 1444 1442 1441 1440 1440 1439 1439 1440 1441 1442 1442 1443 1451 1459 1458 1461 1470 1474 1472 1469 1465 1462 1462 1464 1466 1467 1469 1470 1467 1465 1469 1467 1469 1483 1484 1474 1478 1485
1493 1490 1487 1484 1481 1478 1475 1471 1467 1464 1460 1458 1456 1454 1453 1453 1453 1454 1453 1450 1450 1454 1457 1456 1454 1454 1453 1451 1451 1451 1448 1445 1443 1443 1445 1446 1445 1445 1444 1443 1441 1441 1442 1443 1444 1445 1443 1441 1444 1447 1446 1444 1443 1442 1440 1439 1442 1443 1444 1444 1446 1456 1465 1464 1461 1465 1468 1468 1468 1467 1465 1465 1466 1466 1466 1470 1473 1470 1466 1467 1466 1470 1481 1483 1479 1482 1485
1494 1491 1488 1485 1482 1479 1476 1472 1469 1465 1462 1460 1458 1456 1455 1456 1459 1461 1459 1456 1455 1456 1457 1457 1455 1455 1454 1454 1455 1455 1452 1448 1445 1443 1445 1446 1446 1446 1447 1445 1444 1444 1445 1443 1445 1448 1447 1444 1447 1451 1451 1448 1445 1444 1442 1441 1443 1444 1445 1446 1449 1457 1467 1470 1468 1470 1473 1471 1469 1469 1467 1468 1470 1470 1467 1469 1473 1470 1464 1465 1471 1475 1476 1479 1485 1488 1487
1494 1492 1489 1486 1483 1480 1477 1474 1471 1467 1464 1462 1460 1458 1458 1459 1463 1464 1463 1463 1463 1462 1462 1461 1458 1456 1456 1457 1458 1457 1454 1452 1451 1448 1446 1447 1447 1446 1448 1450 1450 1450 1448 1445 1448 1452 1450 1449 1453 1454 1453 1450 1448 1445 1443 1444 1444 1444 1445 1447 1449 1456 1467 1472 1471 1473 1475 1473 1472 1471 1471 1474 1479 1480 1474 1470 1471 1472 1468 1472 1481 1478 1472 1477 1488 1491 1493
1495 1493 1490 1487 1484 1481 1478 1476 1473 1469 1468 1465 1462 1461 1462 1463 1464 1464 1463 1465 1467 1466 1466 1464 1462 1460 1460 1460 1461 1460 1458 1457 1456 1453 1450 1449 1449 1449 1452 1455 1454 1453 1450 1448 1453 1458 1454 1454 1458 1457 1456 1455 1452 1450 1448 1447 1447 1446 1447 1448 1449 1456 1468 1472 1472 1477 1478 1475 1476 1476 1474 1477 1481 1485 1485 1479 1477 1480 1480 1484 1490 1485 1482 1490 1493 1494 1500
1496 1494 1491 1489 1486 1483 1480 1477 1475 1472 1470 1468 1464 1464 1466 1466 1467 1466 1465 1465 1466 1466 1467 1466 1465 1465 1464 1464 1465 1464 1462 1460 1458 1457 1456 1456 1456 1454 1456 1458 1456 1455 1453 1452 1457 1461 1459 1459 1460 1459 1459 1457 1456 1456 1456 1454 1451 1449 1449 1452 1450 1454 1467 1472 1471 1477 1482 1480 1479 1477 1474 1476 1478 1483 1490 1486 1480 1483 1486 1489 1493 1490 1493 1500 1495 1493 1502
1497 1495 1493 1490 1487 1485 1482 1479 1477 1474 1472 1469 1467 1468 1470 1469 1469 1469 1467 1468 1469 1468 1468 1467 1467 1468 1469 1470 1470 1468 1466 1464 1461 1461 1461 1462 1463 1461 1459 1459 1458 1457 1456 1456 1459 1461 1461 1461 1461 1460 1460 1459 1458 1459 1459 1458 1456 1453 1453 1455 1452 1455 1467 1472 1470 1477 1484 1483 1482 1478 1475 1480 1482 1484 1490 1489 1483 1485 1489 1493 1494 1492 1494 1496 1491 1492 1503
1499 1496 1494 1492 1489 1487 1484 1481 1479 1477 1474 1472 1471 1472 1472 1471 1471 1470 1469 1471 1473 1472 1471 1469 1469 1472 1474 1474 1473 1472 1470 1467 1464 1464 1464 1463 1464 1464 1461 1460 1460 1458 1458 1459 1460 1460 1460 1460 1460 1459 1459 1459 1459 1459 1459 1459 1459 1457 1455 1456 1458 1459 1464 1468 1470 1476 1484 1484 1483 1484 1482 1485 1488 1489 1492 1495 1493 1492 1493 1496 1498 1498 1497 1494 1490 1495 1504
1500 1498 1495 1493 1491 1488 1486 1484 1481 1479 1477 1475 1474 1474 1474 1473 1472 1471 1470 1473 1475 1475 1474 1473 1474 1475 1475 1474 1474 1474 1472 1470 1468 1468 1468 1466 1465 1464 1462 1460 1460 1460 1461 1461 1460 1459 1458 1458 1458 1458 1458 1458 1458 1458 1458 1458 1459 1459 1457 1456 1460 1461 1461 1466 1469 1472 1480 1485 1486 1486 1484 1484 1490 1495 1496 1496 1495 1493 1494 1498 1501 1501 1499 1498 1497 1502 1506
1501 1499 1497 1495 1492 1490 1488 1486 1484 1482 1480 1479 1478 1477 1476 1475 1474 1473 1472 1475 1478 1478 1476 1478 1479 1478 1477 1475 1474 1474 1473 1472 1471 1470 1470 1469 1467 1465 1463 1462 1463 1462 1462 1461 1459 1457 1457 1457 1457 1458 1457 1457 1457 1458 1458 1459 1459 1460 1459 1457 1459 1460 1461 1467 1471 1472 1480 1487 1484 1483 1485 1489 1495 1499 1496 1494 1495 1495 1495 1500 1503 1502 1501 1502 1503 1504 1505
1502 1500 1498 1496 1494 1492 1490 1488 1486 1484 1483 1482 1481 1479 1478 1477 1476 1475 1474 1477 1481 1481 1479 1479 1480 1479 1478 1476 1475 1474 1473 1473 1472 1471 1470 1470 1468 1467 1466 1466 1466 1464 1461 1460 1459 1457 1458 1459 1459 1458 1457 1456 1458 1459 1460 1462 1462 1461 1460 1459 1459 1460 1461 1467 1474 1478 1481 1483 1482 1483 1490 1498 1500 1499 1496 1495 1496 1495 1493 1497 1503 1504 1504 1505 1505 1506 1507
1503 1501 1499 1497 1495 1494 1492 1490 1488 1486 1485 1484 1483 1481 1480 1479 1478 1477 1476 1478 1482 1483 1481 1480 1480 1479 1479 1478 1476 1475 1474 1472 1472 1471 1470 1470 1470 1469 1469 1468 1467 1464 1462 1461 1460 1459 1460 1460 1460 1460 1460 1460 1461 1462 1462 1464 1465 1463 1463 1462 1461 1461 1462 1464 1472 1480 1484 1486 1493 1499 1501 1503 1502 1499 1498 1497 1497 1496 1495 1498 1504 1506 1505 1505 1506 1506 1507
1504 1502 1501 1499 1497 1495 1493 1491 1490 1488 1487 1486 1485 1484 1482 1481 1480 1479 1478 1479 1481 1483 1483 1483 1483 1482 1480 1480 1479 1477 1476 1475 1474 1473 1472 1471 1470 1470 1469 1468 1466 1464 1462 1461 1461 1461 1462 1462 1461 1462 1463 1464 1466 1467 1466 1466 1465 1464 1464 1465 1464 1463 1463 1461 1466 1480 1489 1490 1497 1505 1501 1496 1497 1498 1498 1497 1498 1498 1497 1498 1504 1506 1506 1506 1507 1506 1506
1505 1503 1502 1500 1498 1496 1494 1493 1491 1490 1488 1487 1486 1485 1484 1483 1482 1481 1480 1479 1480 1484 1486 1486 1485 1484 1482 1481 1480 1479 1479 1479 1478 1475 1474 1472 1471 1470 1470 1468 1467 1465 1463 1462 1464 1465 1465 1465 1467 1467 1468 1470 1470 1470 1469 1468 1468 1465 1464 1465 1465 1465 1468 1466 1465 1478 1487 1481 1483 1494 1495 1493 1497 1499 1498 1498 1498 1497 1497 1499 1503 1507 1507 1506 1507 1507 1507
1506 1504 1502 1501 1499 1497 1496 1494 1493 1491 1490 1488 1488 1487 1486 1485 1484 1483 1482 1481 1482 1486 1489 1487 1485 1484 1483 1483 1482 1482 1482 1482 1480 1479 1478 1476 1475 1473 1470 1468 1467 1465 1464 1465 1467 1468 1469 1472 1473 1473 1474 1475 1473 1471 1471 1472 1473 1472 1469 1469 1469 1468 1471 1471 1469 1476 1483 1479 1481 1495 1500 1499 1500 1500 1497 1497 1497 1497 1499 1500 1502 1507 1508 1507 1507 1507 1507
1507 1505 1503 1502 1500 1499 1497 1495 1494 1493 1491 1490 1489 1488 1488 1487 1486 1485 1485 1484 1484 1487 1489 1488 1487 1486 1485 1486 1485 1484 1484 1483 1482 1482 1481 1479 1478 1477 1474 1472 1471 1468 1467 1469 1471 1473 1475 1478 1479 1478 1477 1477 1475 1474 1476 1477 1480 1482 1480 1478 1478 1478 1480 1481 1480 1483 1487 1484 1488 1499 1504 1501 1500 1499 1498 1497 1497 1498 1500 1501 1503 1507 1508 1507 1508 1508 1508
1507 1506 1504 1503 1501 1500 1498 1497 1495 1494 1492 1491 1491 1490 1489 1489 1488 1488 1487 1486 1487 1489 1490 1490 1489 1488 1488 1488 1487 1486 1486 1485 1484 1484 1483 1481 1480 1479 1477 1476 1475 1473 1472 1473 1476 1479 1480 1481 1483 1483 1481 1480 1479 1479 1482 1484 1485 1486 1485 1484 1483 1484 1486 1489 1489 1490 1493 1493 1494 1499 1503 1501 1500 1499 1498 1497 1497 1500 1502 1504 1506 1508 1507 1507 1508 1508 1508
1508 1507 1505 1504 1502 1501 1500 1498 1497 1496 1494 1493 1492 1491 1491 1491 1490 1490 1489 1489 1489 1490 1491 1491 1490 1490 1490 1489 1488 1488 1487 1486 1485 1486 1486 1485 1481 1478 1479 1480 1479 1478 1477 1477 1480 1484 1483 1483 1485 1485 1483 1484 1483 1482 1485 1488 1488 1487 1486 1487 1487 1487 1489 1493 1494 1495 1497 1498 1497 1497 1499 1501 1500 1498 1498 1498 1500 1503 1505 1506 1508 1508 1508 1508 1508 1508 1508
1508 1507 1506 1505 1503 1502 1501 1500 1498 1497 1496 1494 1493 1493 1492 1492 1492 1492 1491 1491 1491 1491 1492 1492 1492 1492 1491 1491 1490 1490 1489 1488 1488 1487 1487 1486 1483 1480 1484 1486 1485 1483 1484 1483 1484 1486 1486 1486 1487 1486 1485 1485 1484 1484 1487 1489 1488 1487 1487 1487 1487 1488 1489 1493 1496 1496 1494 1494 1497 1499 1501 1502 1500 1498 1500 1502 1503 1504 1506 1507 1507 1508 1508 1509 1508 1508 1509
1509 1508 1506 1505 1504 1503 1502 1501 1500 1499 1497 1496 1495 1494 1494 1494 1494 1493 1493 1492 1492 1493 1493 1494 1493 1493 1493 1492 1492 1491 1491 1490 1490 1489 1488 1487 1486 1484 1486 1488 1486 1486 1487 1486 1486 1487 1487 1487 1487 1487 1488 1488 1487 1489 1492 1491 1489 1489 1489 1487 1488 1490 1489 1489 1494 1499 1497 1496 1500 1503 1504 1503 1502 1500 1502 1504 1505 1506 1507 1507 1508 1508 1509 1509 1509 1509 1509
1509 1508 1507 1506 1505 1504 1502 1502 1501 1500 1499 1497 1496 1495 1495 1495 1495 1494 1494 1494 1494 1494 1494 1494 1494 1494 1494 1493 1493 1493 1492 1491 1491 1490 1489 1488 1488 1488 1488 1488 1487 1487 1488 1487 1487 1487 1487 1488 1488 1488 1490 1491 1490 1491 1492 1491 1491 1492 1492 1490 1491 1492 1491 1490 1495 1501 1501 1501 1503 1504 1504 1504 1504 1504 1504 1505 1506 1507 1507 1508 1508 1509 1509 1510 1510 1510 1510
1509 1508 1507 1506 1505 1504 1503 1502 1501 1501 1500 1499 1498 1497 1496 1496 1496 1495 1495 1495 1495 1495 1495 1495 1495 1495 1494 1494 1494 1493 1493 1493 1492 1492 1491 1490 1489 1489 1489 1489 1489 1489 1489 1488 1488 1488 1487 1488 1489 1489 1490 1491 1491 1492 1493 1492 1493 1494 1493 1493 1493 1493 1492 1493 1497 1500 1501 1502 1505 1505 1504 1505 1505 1505 1506 1506 1507 1507 1508 1508 1509 1510 1510 1510 1510 1510 1510
1509 1509 1507 1506 1505 1504 1503 1503 1502 1501 1501 1500 1499 1498 1498 1497 1497 1496 1496 1496 1495 1495 1496 1496 1496 1496 1496 1495 1495 1494 1494 1494 1493 1493 1492 1492 1491 1490 1491 1491 1491 1490 1490 1489 1489 1488 1488 1488 1489 1490 1491 1491 1491 1493 1495 1494 1493 1493 1493 1494 1495 1493 1492 1495 1499 1501 1501 1503 1504 1505 1505 1505 1505 1505 1506 1507 1507 1508 1508 1509 1509 1510 1510 1510 1510 1510 1510
1509 1509 1508 1507 1506 1505 1503 1503 1502 1502 1501 1501 1500 1500 1499 1498 1498 1497 1497 1497 1496 1496 1497 1497 1497 1497 1496 1496 1495 1495 1495 1494 1494 1494 1493 1493 1492 1492 1492 1492 1492 1491 1491 1490 1490 1489 1489 1490 1491 1491 1492 1492 1491 1493 1494 1494 1494 1494 1494 1495 1495 1494 1494 1497 1501 1503 1504 1504 1504 1505 1506 1506 1505 1505 1506 1506 1507 1508 1508 1509 1509 1509 1509 1509 1509 1509 1509
1509 1508 1508 1507 1506 1505 1504 1503 1503 1502 1502 1501 1501 1500 1500 1499 1499 1498 1498 1498 1497 1497 1497 1498 1497 1497 1497 1497 1496 1496 1496 1495 1495 1495 1494 1494 1494 1493 1493 1493 1492 1492 1492 1491 1491 1490 1490 1491 1492 1493 1493 1493 1493 1494 1495 1495 1495 1495 1495 1495 1495 1495 1497 1499 1501 1503 1504 1503 1502 1503 1505 1505 1505 1505 1506 1506 1507 1507 1508 1508 1508 1508 1508 1508 1508 1508 1507
1508 1508 1507 1507 1506 1505 1504 1504 1503 1502 1502 1502 1501 1501 1501 1500 1499 1499 1499 1498 1498 1498 1498 1498 1498 1497 1497 1497 1497 1497 1497 1496 1496 1495 1495 1495 1494 1494 1493 1493 1493 1493 1492 1492 1492 1492 1492 1492 1493 1494 1494 1493 1494 1495 1496 1496 1496 1497 1497 1496 1495 1496 1497 1499 1499 1500 1501 1500 1500 1502 1503 1503 1504 1504 1505 1506 1507 1507 1507 1508 1508 1508 1508 1507 1507 1507 1506
1507 1507 1507 1506 1506 1505 1505 1504 1504 1503 1502 1502 1502 1501 1501 1501 1500 1500 1499 1499 1499 1499 1499 1498 1498 1497 1497 1497 1498 1497 1497 1497 1496 1496 1496 1495 1495 1494 1494 1493 1493 1493 1493 1493 1493 1493 1493 1494 1494 1494 1494 1494 1495 1496 1497 1499 1499 1498 1497 1497 1496 1496 1497 1497 1497 1498 1499 1499 1500 1502 1502 1503 1503 1504 1505 1506 1506 1506 1507 1507 1507 1507 1507 1506 1506 1505 1504
1506 1506 1506 1505 1505 1505 1505 1504 1504 1503 1503 1502 1502 1502 1501 1501 1501 1500 1500 1499 1499 1499 1499 1498 1498 1498 1498 1498 1498 1498 1497 1497 1497 1496 1496 1495 1495 1495 1494 1494 1494 1494 1494 1494 1494 1494 1494 1494 1494 1494 1494 1495 1495 1497 1499 1502 1502 1499 1497 1496 1497 1497 1497 1497 1498 1498 1499 1500 1501 1502 1502 1503 1503 1504 1504 1505 1505 1505 1506 1506 1506 1506 1505 1505 1504 1504 1503
1505 1505 1505 1505 1504 1504 1504 1504 1504 1504 1503 1503 1502 1502 1502 1502 1501 1500 1500 1500 1499 1499 1499 1499 1498 1498 1498 1498 1498 1498 1498 1497 1497 1496 1496 1495 1495 1495 1495 1494 1494 1494 1494 1494 1494 1494 1494 1494 1494 1495 1495 1495 1495 1497 1499 1501 1501 1499 1496 1496 1497 1497 1497 1498 1498 1499 1499 1500 1501 1501 1502 1502 1503 1503 1504 1504 1504 1505 1505 1505 1505 1505 1504 1503 1503 1502 1502
1504 1504 1504 1503 1503 1503 1503 1503 1503 1503 1503 1503 1502 1502 1502 1502 1501 1501 1500 1500 1499 1499 1499 1498 1499 1499 1499 1498 1498 1498 1498 1497 1497 1496 1496 1495 1495 1495 1495 1494 1494 1494 1494 1494 1494 1494 1495 1495 1495 1495 1495 1495 1496 1498 1499 1500 1499 1497 1495 1495 1496 1497 1498 1498 1499 1499 1499 1500 1500 1501 1502 1502 1502 1503 1503 1503 1504 1504 1505 1505 1504 1503 1503 1502 1502 1501 1501
1503 1503 1502 1502 1502 1502 1502 1503 1503 1503 1503 1503 1502 1502 1502 1502 1501 1500 1500 1500 1500 1499 1499 1499 1500 1501 1500 1499 1498 1498 1498 1497 1497 1496 1496 1495 1495 1495 1495 1494 1494 1494 1494 1494 1494 1494 1495 1495 1495 1495 1495 1496 1496 1498 1499 1498 1496 1495 1494 1495 1496 1497 1497 1498 1499 1499 1499 1500 1500 1501 1501 1501 1502 1502 1502 1503 1503 1504 1504 1504 1503 1502 1502 1501 1501 1500 1500
1501 1501 1501 1501 1501 1501 1501 1501 1502 1502 1502 1502 1502 1502 1502 1501 1501 1500 1500 1500 1500 1500 1500 1500 1501 1501 1500 1499 1499 1498 1498 1498 1497 1497 1496 1496 1495 1495 1495 1494 1494 1494 1494 1494 1494 1494 1495 1495 1494 1495 1496 1496 1497 1497 1497 1495 1494 1493 1494 1495 1496 1497 1497 1498 1498 1499 1499 1500 1500 1500 1501 1501 1501 1502 1502 1503 1503 1503 1503 1503 1502 1501 1501 1500 1500 1499 1499
1500 1500 1499 1499 1499 1500 1500 1501 1501 1501 1501 1502 1502 1501 1501 1501 1500 1500 1499 1499 1500 1500 1500 1500 1501 1501 1501 1501 1500 1499 1498 1498 1498 1497 1497 1496 1495 1495 1495 1494 1494 1494 1494 1495 1495 1494 1495 1495 1494 1495 1496 1498 1497 1497 1495 1493 1492 1493 1493 1494 1495 1496 1497 1497 1498 1498 1499 1499 1500 1500 1500 1500 1501 1501 1502 1502 1502 1502 1502 1501 1501 1500 1500 1499 1499 1498 1498
1499 1498 1498 1498 1499 1499 1499 1500 1500 1500 1501 1501 1501 1501 1500 1500 1499 1499 1499 1499 1500 1500 1500 1501 1501 1501 1502 1502 1501 1499 1498 1498 1498 1497 1497 1496 1495 1495 1495 1495 1495 1495 1495 1495 1495 1495 1495 1495 1494 1496 1498 1498 1495 1493 1492 1491 1491 1492 1492 1493 1494 1494 1495 1496 1497 1498 1498 1499 1499 1499 1500 1500 1500 1501 1501 1501 1501 1501 1501 1501 1500 1500 1499 1499 1498 1498 1497
1498 1498 1497 1498 1498 1498 1499 1499 1499 1499 1500 1500 1500 1500 1500 1499 1499 1499 1499 1499 1500 1500 1500 1501 1501 1501 1501 1501 1500 1499 1498 1498 1498 1498 1497 1496 1496 1496 1495 1496 1496 1495 1495 1495 1495 1495 1495 1494 1495 1496 1497 1495 1492 1490 1490 1491 1491 1491 1491 1492 1492 1494 1495 1496 1497 1497 1498 1498 1499 1499 1499 1500 1500 1500 1500 1501 1501 1501 1500 1500 1499 1499 1498 1498 1498 1497 1496
1498 1497 1497 1497 1497 1498 1498 1498 1498 1499 1499 1500 1500 1499 1499 1499 1498 1499 1499 1499 1500 1500 1500 1501 1500 1500 1500 1500 1500 1499 1499 1499 1499 1499 1498 1497 1497 1496 1496 1496 1496 1496 1497 1497 1496 1495 1495 1495 1497 1497 1494 1491 1490 1489 1489 1489 1489 1489 1490 1491 1492 1493 1495 1496 1496 1497 1497 1498 1498 1498 1498 1499 1499 1499 1500 1500 1500 1500 1499 1499 1499 1498 1498 1497 1497 1496 1495
1498 1497 1497 1497 1497 1498 1498 1498 1498 1498 1499 1499 1499 1499 1499 1499 1499 1499 1499 1500 1500 1500 1500 1500 1500 1499 1500 1500 1499 1499 1499 1499 1500 1500 1499 1499 1498 1497 1497 1498 1497 1497 1499 1499 1496 1494 1495 1496 1499 1498 1494 1490 1489 1489 1488 1488 1488 1488 1489 1490 1492 1493 1495 1495 1496 1496 1496 1497 1497 1497 1497 1497 1498 1498 1499 1499 1499 1499 1499 1499 1498 1498 1497 1497 1496 1495 1494
1498 1497 1497 1497 1498 1497 1497 1497 1497 1497 1498 1498 1499 1499 1499 1499 1499 1500 1500 1500 1500 1500 1500 1500 1499 1499 1499 1499 1499 1499 1499 1499 1499 1499 1499 1499 1499 1498 1499 1499 1497 1498 1502 1500 1496 1494 1495 1497 1499 1498 1493 1489 1489 1488 1487 1488 1488 1488 1488 1490 1492 1493 1495 1495 1495 1496 1496 1496 1496 1496 1495 1496 1497 1498 1498 1498 1498 1498 1498 1498 1498 1497 1496 1496 1495 1495 1494
1498 1498 1498 1498 1498 1497 1497 1497 1497 1497 1498 1498 1499 1499 1500 1500 1500 1500 1501 1501 1501 1500 1500 1499 1499 1499 1499 1499 1499 1499 1499 1499 1499 1499 1499 1499 1499 1499 1499 1499 1498 1500 1502 1500 1496 1495 1495 1496 1498 1496 1492 1489 1489 1488 1487 1488 1488 1488 1489 1491 1492 1493 1494 1494 1494 1495 1495 1495 1495 1495 1495 1496 1496 1497 1497 1498 1498 1498 1498 1497 1497 1496 1496 1495 1495 1494 1493
1499 1499 1498 1498 1498 1497 1497 1498 1498 1498 1498 1498 1499 1501 1502 1502 1501 1501 1501 1501 1501 1501 1500 1500 1499 1499 1499 1499 1499 1499 1499 1499 1499 1499 1499 1499 1499 1499 1500 1501 1501 1501 1499 1497 1496 1496 1497 1497 1497 1494 1490 1488 1488 1488 1487 1488 1488 1489 1490 1491 1492 1492 1493 1494 1494 1494 1495 1495 1495 1495 1495 1496 1496 1496 1497 1497 1497 1497 1497 1496 1496 1496 1495 1494 1494 1493 1492
1500 1499 1499 1498 1498 1498 1498 1498 1498 1499 1500 1501 1501 1503 1504 1504 1503 1504 1503 1501 1501 1501 1500 1500 1500 1499 1499 1499 1499 1499 1499 1499 1499 1499 1499 1499 1499 1500 1501 1502 1502 1500 1497 1496 1496 1496 1497 1497 1495 1492 1489 1488 1488 1487 1486 1487 1488 1489 1490 1491 1491 1492 1493 1493 1493 1494 1494 1494 1494 1494 1495 1495 1496 1496 1496 1496 1496 1496 1496 1496 1495 1495 1494 1494 1493 1492 1491
1500 1499 1498 1498 1498 1498 1498 1499 1499 1500 1503 1504 1504 1506 1507 1506 1506 1506 1505 1503 1502 1502 1501 1500 1500 1499 1499 1499 1499 1499 1499 1499 1499 1500 1499 1499 1500 1501 1502 1501 1499 1497 1496 1497 1497 1498 1498 1496 1492 1489 1488 1488 1487 1487 1486 1486 1487 1488 1489 1490 1490 1491 1492 1492 1493 1493 1493 1493 1493 1494 1494 1495 1495 1495 1496 1496 1496 1496 1495 1495 1495 1494 1493 1493 1492 1491 1490
1500 1499 1498 1499 1499 1499 1499 1500 1501 1502 1504 1506 1506 1507 1507 1507 1507 1506 1505 1503 1502 1502 1501 1500 1500 1499 1499 1499 1499 1499 1499 1499 1500 1499 1499 1500 1501 1502 1501 1499 1498 1498 1499 1500 1499 1499 1498 1494 1489 1488 1488 1487 1486 1486 1486 1486 1486 1487 1488 1489 1490 1490 1491 1491 1492 1492 1492 1492 1492 1493 1493 1494 1494 1495 1495 1495 1495 1495 1495 1494 1494 1493 1492 1492 1491 1490 1489
1500 1500 1499 1500 1500 1500 1501 1502 1503 1504 1504 1505 1506 1506 1506 1506 1505 1505 1504 1503 1502 1502 1501 1500 1500 1499 1499 1499 1499 1499 1499 1499 1499 1499 1499 1501 1501 1500 1498 1497 1497 1499 1501 1502 1500 1497 1494 1490 1488 1487 1487 1487 1486 1485 1485 1484 1485 1487 1487 1488 1488 1489 1490 1490 1491 1491 1492 1492 1492 1492 1492 1493 1493 1494 1494 1494 1494 1494 1494 1494 1493 1492 1492 1491 1491 1490 1489
1501 1501 1501 1501 1501 1502 1502 1502 1503 1504 1504 1504 1505 1505 1505 1505 1504 1504 1503 1503 1502 1501 1500 1500 1499 1499 1499 1498 1498 1498 1498 1498 1498 1498 1499 1500 1499 1497 1497 1497 1498 1499 1499 1499 1497 1494 1491 1488 1487 1487 1486 1486 1485 1485 1484 1484 1484 1485 1486 1486 1487 1488 1489 1489 1490 1490 1491 1491 1491 1491 1491 1491 1492 1492 1493 1493 1493 1493 1493 1493 1492 1492 1491 1491 1490 1489 1488
1502 1502 1502 1502 1502 1502 1502 1502 1503 1503 1504 1504 1504 1504 1504 1504 1503 1503 1502 1502 1501 1500 1499 1499 1498 1498 1498 1498 1498 1498 1498 1498 1498 1498 1497 1497 1498 1498 1498 1498 1499 1499 1498 1495 1492 1490 1488 1487 1486 1486 1486 1485 1485 1484 1483 1483 1483 1484 1485 1486 1486 1487 1487 1488 1488 1489 1489 1490 1490 1490 1490 1490 1491 1491 1491 1492 1492 1492 1492 1492 1492 1491 1491 1490 1489 1489 1488
1502 1502 1502 1502 1502 1502 1502 1502 1503 1503 1503 1503 1504 1504 1504 1503 1503 1502 1501 1501 1500 1500 1499 1498 1498 1498 1498 1498 1498 1498 1498 1498 1498 1498 1497 1497 1498 1499 1499 1499 1497 1496 1493 1491 1489 1487 1486 1486 1486 1485 1485 1484 1484 1484 1483 1483 1483 1483 1484 1484 1485 1486 1486 1487 1487 1488 1488 1488 1489 1489 1489 1489 1489 1490 1490 1490 1491 1491 1491 1491 1491 1491 1490 1490 1489 1488 1488
1502 1502 1502 1502 1501 1501 1501 1502 1502 1502 1502 1502 1503 1503 1503 1502 1502 1501 1501 1500 1499 1499 1498 1498 1498 1498 1498 1498 1499 1499 1498 1496 1496 1497 1497 1497 1497 1498 1498 1497 1494 1491 1489 1487 1486 1486 1485 1485 1485 1484 1484 1484 1483 1483 1482 1482 1482 1482 1482 1483 1484 1485 1485 1485 1486 1486 1487 1487 1487 1487 1488 1488 1488 1488 1489 1489 1490 1490 1490 1490 1490 1490 1490 1489 1489 1488 1488
1502 1501 1501 1500 1500 1500 1500 1501 1501 1501 1501 1501 1501 1501 1501 1501 1501 1500 1500 1499 1499 1499 1498 1498 1497 1498 1498 1499 1500 1499 1496 1494 1495 1496 1495 1494 1494 1495 1494 1491 1488 1487 1486 1485 1485 1485 1484 1484 1484 1483 1483 1483 1482 1482 1481 1481 1481 1481 1481 1482 1483 1483 1484 1484 1484 1485 1485 1486 1486 1486 1486 1486 1486 1487 1487 1488 1488 1488 1488 1489 1489 1489 1489 1489 1488 1488 1488
1501 1500 1499 1499 1499 1499 1499 1499 1499 1499 1499 1499 1499 1500 1500 1499 1499 1499 1499 1498 1498 1498 1498 1497 1497 1498 1498 1498 1497 1496 1495 1494 1495 1495 1493 1490 1489 1488 1487 1484 1483 1484 1484 1484 1483 1483 1483 1482 1482 1482 1482 1481 1481 1481 1481 1480 1480 1480 1480 1480 1481 1481 1482 1482 1483 1483 1483 1484 1484 1484 1484 1485 1485 1485 1486 1486 1486 1486 1486 1487 1487 1487 1487 1488 1488 1488 1487